Tracking 27172 objects as of 2-Apr-2023
HD Live streaming from Space Station
objects crossing your sky now

COSMOS 2227

Track COSMOS 2227 now!
10-day predictions
COSMOS 2227 is classified as:


NORAD ID: 22284
Int'l Code: 1992-093A
Perigee: 840.3 km
Apogee: 869.4 km
Inclination: 71.0 °
Period: 101.9 minutes
Semi major axis: 7225 km
RCS: 7.0075 m2 (large)
Launch date: December 25, 1992
Source: Commonwealth of Independent States (former USSR) (CIS)
Launch site: TYURATAM MISSILE AND SPACE COMPLEX (TTMTR)
Your satellite tracking list
Your tracking list is empty




NASA's NSSDC Master Catalog

Two Line Element Set (TLE):
1 22284U 92093A   23091.83877624  .00000353  00000-0  21275-3 0  9992
2 22284  70.9751 122.1156 0020187 219.0438 140.9227 14.13414243561422
Source of the keplerian elements: AFSPC